TimeCDT,TemperatureF,Dew PointF,Humidity,Sea Level PressureIn,VisibilityMPH,Wind Direction,Wind SpeedMPH,Gust SpeedMPH,PrecipitationIn,Events,Conditions,WindDirDegrees,DateUTC
12:55 AM,48.2,44.6,87,30.00,10.0,Calm,Calm,-,N/A,,Clear,0,2012-10-31 05:55:00
1:55 AM,47.8,44.4,88,29.99,10.0,SE,3.5,-,N/A,,Clear,140,2012-10-31 06:55:00
2:55 AM,44.4,42.1,91,29.99,10.0,South,4.6,-,N/A,,Clear,180,2012-10-31 07:55:00
3:55 AM,49.5,44.1,82,29.98,10.0,Calm,Calm,-,N/A,,Clear,0,2012-10-31 08:55:00
4:55 AM,50.0,43.9,79,29.98,10.0,SSE,3.5,-,N/A,,Clear,150,2012-10-31 09:55:00
5:55 AM,48.6,44.4,86,29.99,10.0,SSE,3.5,-,N/A,,Clear,150,2012-10-31 10:55:00
6:55 AM,47.5,44.8,90,29.99,10.0,SSE,4.6,-,N/A,,Clear,150,2012-10-31 11:55:00
7:55 AM,47.8,45.7,92,29.99,10.0,SSE,4.6,-,N/A,,Clear,160,2012-10-31 12:55:00
8:37 AM,53.6,50.0,88,30.00,10.0,SSE,3.5,-,N/A,,Light Drizzle,150,2012-10-31 13:37:00
8:39 AM,53.6,50.0,88,30.00,10.0,SSE,3.5,-,N/A,,Clear,150,2012-10-31 13:39:00
8:55 AM,55.4,50.5,84,30.00,10.0,South,3.5,-,N/A,,Clear,180,2012-10-31 13:55:00
9:55 AM,64.4,54.5,70,29.99,10.0,WSW,8.1,-,N/A,,Clear,240,2012-10-31 14:55:00
10:55 AM,71.1,55.9,59,30.00,10.0,West,11.5,-,N/A,,Clear,270,2012-10-31 15:55:00
11:55 AM,73.4,55.4,53,30.00,10.0,West,12.7,-,N/A,,Clear,270,2012-10-31 16:55:00
12:55 PM,75.7,56.3,51,29.96,10.0,SW,8.1,-,N/A,,Clear,230,2012-10-31 17:55:00
1:55 PM,77.9,55.6,46,29.96,10.0,NW,11.5,-,N/A,,Clear,320,2012-10-31 18:55:00
2:55 PM,77.7,54.3,44,29.96,10.0,NNW,9.2,-,N/A,,Clear,340,2012-10-31 19:55:00
3:55 PM,77.5,53.4,43,29.96,10.0,North,6.9,-,N/A,,Clear,360,2012-10-31 20:55:00
4:55 PM,76.8,50.9,40,29.95,7.0,North,9.2,-,N/A,,Clear,360,2012-10-31 21:55:00
5:55 PM,73.0,52.5,48,29.96,10.0,North,6.9,-,N/A,,Clear,350,2012-10-31 22:55:00
6:55 PM,68.0,52.3,57,29.98,10.0,NNE,4.6,-,N/A,,Clear,30,2012-10-31 23:55:00
7:55 PM,63.1,52.9,69,29.99,10.0,Calm,Calm,-,N/A,,Clear,0,2012-11-01 00:55:00
8:55 PM,60.1,50.9,72,30.00,10.0,Calm,Calm,-,N/A,,Clear,0,2012-11-01 01:55:00
9:55 PM,55.9,51.1,84,30.01,10.0,Calm,Calm,-,N/A,,Clear,0,2012-11-01 02:55:00
10:55 PM,54.0,51.1,90,30.01,10.0,Calm,Calm,-,N/A,,Clear,0,2012-11-01 03:55:00
11:55 PM,53.1,51.4,94,30.01,10.0,Calm,Calm,-,N/A,,Clear,0,2012-11-01 04:55:00